WB2COY Weather Reports


time (UTC)temp
C
wind
direction
speed
KPH
gust
KPH
rain 1hr
cm
rain 24hr
cm
rain mn
cm
humidity
%
barometer
mb
20260508230038 13 0.0 3.2 0.00 0.00 0.00 32 1010.9
20260508223016 14 45 1.6 8.0 0.00 0.00 0.00 32 1010.8
20260508220016 15 68 1.6 8.0 0.00 0.00 0.00 26 1010.6
20260508213016 15 45 1.6 8.0 0.00 0.00 0.00 34 1010.7
20260508210016 14 45 3.2 11.3 0.00 0.00 0.00 36 1010.9
20260508203016 14 23 3.2 11.3 0.00 0.00 0.00 40 1010.7
20260508200016 14 45 1.6 8.0 0.00 0.00 0.00 41 1010.8
20260508193036 13 23 4.8 14.5 0.00 0.00 0.00 44 1011.1
20260508190036 15 45 4.8 12.9 0.00 0.00 0.00 44 1011.2
20260508183017 16 23 1.6 6.4 0.00 0.00 0.00 41 1011.1
20260508180016 15 315 1.6 9.7 0.00 0.00 0.00 38 1011.2
20260508173016 14 45 1.6 6.4 0.00 0.00 0.00 45 1010.9
20260508170016 13 0.0 4.8 0.00 0.00 0.00 43 1011.3
20260508163016 11 293 1.6 9.7 0.00 0.00 0.00 50 1011.5
20260508160036 12 0.0 6.4 0.00 0.00 0.00 42 1011.6
20260508153016 13 225 1.6 9.7 0.00 0.00 0.00 36 1011.2
20260508150015 13 315 1.6 6.4 0.00 0.00 0.00 38 1011.3
20260508143015 13 203 1.6 6.4 0.00 0.00 0.00 42 1011.7
20260508140015 11 225 1.6 8.0 0.00 0.00 0.00 45 1011.9
20260508133015 11 225 1.6 6.4 0.00 0.00 0.00 50 1012.0
20260508130015 11 0.0 3.2 0.00 0.00 0.00 49 1012.1
20260508123015 12 0.0 3.2 0.00 0.00 0.00 49 1012.3
20260508120137 11 0.0 3.2 0.00 0.00 0.00 53 1012.5
20260508113036 8 0.0 1.6 0.00 0.00 0.00 59 1012.3
20260508110015 7 0.0 3.2 0.00 0.00 0.00 64 1011.9
20260508103016 6 0.0 1.6 0.00 0.00 0.00 64 1011.8
20260508100015 7 0.0 4.8 0.00 0.03 0.00 63 1011.5
20260508093015 7 0.0 3.2 0.00 0.03 0.00 61 1011.3
20260508090015 7 0.0 3.2 0.00 0.03 0.00 60 1011.0
20260508083016 7 0.0 6.4 0.00 0.03 0.00 59 1011.0
20260508080018 8 0.0 1.6 0.00 0.03 0.00 58 1010.9
20260508073020 8 0.0 1.6 0.00 0.03 0.00 56 1011.2
20260508070017 8 0.0 4.8 0.00 0.03 0.00 54 1011.0
20260508063037 8 0.0 8.0 0.00 0.03 0.00 52 1011.0
20260508060016 8 0.0 6.4 0.00 0.03 0.00 50 1011.2
20260508053017 8 0.0 1.6 0.00 0.05 0.00 50 1010.5
20260508050018 8 0.0 0.0 0.00 0.05 0.00 47 1009.9
20260508043017 8 0.0 0.0 0.00 0.05 0.00 50 1010.1
20260508040016 7 0.0 0.0 0.00 0.05 0.05 52 1009.8
20260508033018 7 0.0 0.0 0.00 0.05 0.05 55 1009.9
20260508030038 8 0.0 0.0 0.00 0.05 0.05 52 1009.9
20260508023017 8 0.0 0.0 0.00 0.05 0.05 49 1009.9
20260508020019 9 0.0 0.0 0.00 0.05 0.05 44 1009.7
20260508013017 10 0.0 0.0 0.00 0.05 0.05 46 1009.5
20260508010016 10 0.0 0.0 0.00 0.05 0.05 47 1009.2
20260508003017 11 0.0 0.0 0.00 0.05 0.05 42 1008.6
20260508000017 12 0.0 1.6 0.00 0.05 0.05 35 1008.3
20260507233016 13 0.0 3.2 0.00 0.05 0.05 32 1008.3